Flag for Germany

Past Weather in Bad Neuenahr-Ahrweiler, Rhineland-Palatinate, Germany — Yesterday and Last 2 Weeks

Now
54 °F

Clear.


Feels Like: 54 °F
Forecast: 74 / 50 °F
Wind: 1 mph from Northwest

Location: Aachen-Orsbach

Current Time: Jul 12, 2020 at 3:17:05 am

Latest Report: Jul 12, 2020 at 1:00 am


Visibility: 34 mi

Pressure: 30.34 "Hg

Humidity: 79%

Dew Point: 48 °F

Location of Bad Neuenahr-AhrweilerLocation

Past Weather in Bad Neuenahr-Ahrweiler — Graph

°F

Bad Neuenahr-Ahrweiler Temperature Yesterday

Maximum temperature yesterday: 66 °F (at 4:00 pm)
Minimum temperature yesterday: 50 °F (at 6:00 am)
Average temperature yesterday: 57 °F

High & Low Weather Summary for the Past Weeks

 TemperatureHumidityPressure
High76 °F (Jun 27, 3:00 pm)98% (Jul 8, 10:00 pm)30.34 "Hg (Jul 8, 10:00 pm)
Low48 °F (Jul 7, 6:00 am)48% (Jul 11, 4:00 pm)29.74 "Hg (Jul 1, 4:00 pm)
Average61 °F76%29.96 "Hg
* Reported Jun 27 1:00 am — Jul 12 1:00 am, Bad Neuenahr-Ahrweiler. Weather by CustomWeather, © 2020

Note: Actual official high and low records may vary slightly from our data, if they occured in-between our weather recording intervals... More about our weather records

Bad Neuenahr-Ahrweiler Weather History for the Previous 24 Hours

Scroll right to see more
 ConditionsComfort  
Time TempWeatherWind HumidityBarometerVisibility
1:00 am
Sun, Jul 12
54 °FClear.1 mph79%30.34 "Hg34 mi
12:00 am55 °FClear.1 mph75%30.33 "Hg34 mi
10:00 pm
Sat, Jul 11
58 °FOvercast.1 mph78%30.31 "Hg31 mi
9:00 pm59 °FScattered clouds.2 mph72%30.30 "Hg34 mi
7:00 pm59 °FOvercast.1 mph74%30.29 "Hg47 mi
6:00 pm59 °FOvercast.3 mph81%30.29 "Hg31 mi
4:00 pm66 °FPassing clouds.3 mph48%30.26 "Hg40 mi
3:00 pm64 °FPassing clouds.2 mph51%30.26 "Hg47 mi
1:00 pm61 °FOvercast.3 mph59%30.27 "Hg40 mi
12:00 pm60 °FScattered clouds.2 mph61%30.27 "Hg47 mi
10:00 am58 °FPassing clouds.2 mph69%30.25 "Hg34 mi
9:00 am55 °FSunny.2 mph80%30.24 "Hg22 mi
7:00 am51 °FPassing clouds.2 mph90%30.22 "Hg17 mi
6:00 am50 °FOvercast.2 mph92%30.21 "Hg14 mi
4:00 am50 °FPassing clouds.2 mph90%30.19 "Hg25 mi
3:00 am52 °FPassing clouds.2 mph87%30.18 "Hg31 mi
Weather by CustomWeather, © 2020

See weather overview